Location: Oshawa
(43.9000°N, 78.8670°W)
Time: 08:58:15
(UTC-04:00)

CZ-4C R/B - Visible Passes

Search period start: 17 April 2014 00:00
Search period end: 27 April 2014 00:00
Orbit: 441 x 563 km, 97.6° (Epoch: 16 April)

Date Brightness Start Highest point End Pass type
(mag) Time Alt. Az. Time Alt. Az. Time Alt. Az.
17 Apr 4.8 23:12:18 35° NNW 23:12:18 35° NNW 23:14:42 10° NNW visible
18 Apr 4.6 22:52:58 36° NNE 22:52:58 36° NNE 22:55:35 10° N visible
19 Apr 4.7 22:33:38 29° NE 22:33:38 29° NE 22:36:19 10° N visible
20 Apr 6.0 00:08:20 16° WNW 00:08:20 16° WNW 00:09:35 10° NW visible
20 Apr 5.1 22:14:17 21° NE 22:14:17 21° NE 22:16:50 10° NNE visible
20 Apr 5.5 23:48:59 24° NW 23:48:59 24° NW 23:51:01 10° NNW visible
21 Apr 5.5 21:54:55 14° ENE 21:54:55 14° ENE 21:56:58 10° NNE visible
21 Apr 4.9 23:29:38 35° NW 23:29:38 35° NW 23:32:10 10° NNW visible
22 Apr 4.3 23:10:15 46° N 23:10:15 46° N 23:13:09 10° NNW visible
23 Apr 4.2 22:50:53 42° NNE 22:50:53 42° NNE 22:53:57 10° N visible
24 Apr 6.2 00:25:35 12° WNW 00:25:35 12° WNW 00:26:11 10° WNW visible
24 Apr 4.5 22:31:29 30° NE 22:31:29 30° NE 22:34:36 10° N visible
25 Apr 5.8 00:06:12 19° WNW 00:06:12 19° WNW 00:07:59 10° NW visible
25 Apr 5.0 22:12:05 20° ENE 22:12:05 20° ENE 22:15:02 10° NNE visible
25 Apr 5.1 23:46:48 29° WNW 23:46:48 29° WNW 23:49:18 10° NNW visible
26 Apr 5.5 21:52:41 13° ENE 21:53:07 13° ENE 21:55:01 10° NE visible
26 Apr 4.4 23:27:23 44° NW 23:27:23 44° NW 23:30:22 10° NNW visible
